Latest Weather Observations for Hogan Island

IDV60801

Issued at 1:31 pm EST Thursday 28 May 2015 (issued every 30 minutes, with the page automatically refreshed every 10 minutes)

About weather observations | Map of weather stations | Latest weather observations for VIC | Other Formats
Station Details ID: 200838 Name: HOGAN ISLAND Lat: -39.22 Lon: 146.98 Height: 116.0 m
Data from the previous 72 hours. | See also: Recent months at Hogan Island
Date/Time
EST
Temp
°C
App
Temp
°C
Dew
Point
Rel
Hum
%
Delta-T
°C
Wind Press
QNH
hPa
Press
MSL
hPa
Rain
since 9 am
mm
Dir
 
Spd
km/h
Gust
km/h
Spd
kts
Gust
kts
28/01:30pm 17.8 14.1 11.6 67 3.4 NNW 22 30 12 16 1013.1 - 0.0
28/01:00pm 16.5 10.4 10.6 68 3.2 NNW 33 43 18 23 1013.3 - 0.0
28/12:30pm 16.1 10.4 11.1 72 2.7 NNW 32 41 17 22 1013.7 - 0.0
28/12:00pm 16.5 11.5 11.0 70 3.0 N 28 37 15 20 1014.4 1014.4 0.0
28/11:30am 15.9 10.2 11.3 74 2.5 NNW 32 41 17 22 1014.9 - 0.0
28/11:00am 15.1 9.3 10.7 75 2.3 NNW 32 43 17 23 1015.4 - 0.0
28/10:30am 15.1 9.1 10.9 76 2.2 NNW 33 43 18 23 1015.6 - 0.0
28/10:00am 14.8 8.4 10.8 77 2.1 NNW 35 44 19 24 1015.6 - 0.0
28/09:30am 14.7 7.9 10.7 77 2.1 NNW 37 48 20 26 1015.7 - 0.0
28/09:00am 14.7 7.9 10.7 77 2.1 NNW 37 46 20 25 1015.9 1015.9 2.6
28/08:30am 14.8 7.7 10.8 77 2.1 NNW 39 50 21 27 1015.8 - 2.6
28/08:00am 14.4 7.6 10.6 78 2.0 NNW 37 54 20 29 1015.8 - 2.6
28/07:30am 14.3 7.6 10.9 80 1.8 NNW 37 48 20 26 1015.8 - 2.6
28/07:00am 13.9 8.1 10.9 82 1.6 NNW 32 41 17 22 1015.9 - 2.6
28/06:30am 14.0 8.6 11.0 82 1.6 NNW 30 39 16 21 1015.9 - 2.6
28/06:00am 13.8 9.2 11.0 83 1.5 NNW 26 30 14 16 1015.9 1015.9 2.6
28/05:30am 13.7 9.8 10.7 82 1.6 NNW 22 30 12 16 1015.8 - 2.6
28/05:00am 13.9 9.6 10.9 82 1.6 NNW 24 30 13 16 1015.8 - 2.6
28/04:30am 13.9 8.8 10.5 80 1.8 NNW 28 37 15 20 1016.0 - 2.6
28/04:00am 13.8 7.9 10.6 81 1.7 NNW 32 39 17 21 1016.0 - 2.6
28/03:30am 13.9 7.9 10.7 81 1.7 NNW 33 43 18 23 1016.1 - 2.6
28/03:00am 13.6 8.6 10.9 84 1.4 NNW 28 35 15 19 1016.4 1016.4 2.6
28/02:30am 13.4 9.3 10.2 81 1.7 N 22 30 12 16 1016.9 - 2.6
28/02:00am 13.7 9.2 9.9 78 2.0 N 24 33 13 18 1016.8 - 2.6
28/01:30am 14.0 8.5 10.4 79 1.9 NNW 30 35 16 19 1016.7 - 2.6
28/01:00am 13.8 8.8 10.8 82 1.6 NNW 28 39 15 21 1016.9 - 2.6
28/12:30am 13.3 8.9 10.3 82 1.6 N 24 32 13 17 1017.2 - 2.6
28/12:00am 13.9 8.8 10.7 81 1.7 NNW 28 35 15 19 1017.2 1017.2 2.6
 
Date/Time
EST
Temp
°C
App
Temp
°C
Dew
Point
Rel
Hum
%
Delta-T
°C
Wind Press
QNH
hPa
Press
MSL
hPa
Rain
since 9 am
mm
Dir
 
Spd
km/h
Gust
km/h
Spd
kts
Gust
kts
27/11:30pm 13.8 8.3 10.6 81 1.7 NW 30 35 16 19 1017.3 - 2.6
27/11:00pm 13.9 7.4 10.5 80 1.8 NW 35 41 19 22 1017.4 - 2.6
27/10:30pm 14.0 7.9 10.6 80 1.8 NW 33 39 18 21 1017.4 - 2.6
27/10:00pm 14.2 8.3 11.0 81 1.7 NNW 33 41 18 22 1017.7 - 2.6
27/09:30pm 14.1 10.0 11.3 83 1.5 NNW 24 33 13 18 1017.8 - 2.6
27/09:00pm 14.2 8.9 11.4 83 1.5 NNW 30 35 16 19 1017.9 1018.0 2.6
27/08:30pm 14.4 10.0 11.7 84 1.5 NNW 26 33 14 18 1017.9 - 2.6
27/08:00pm 14.4 10.0 11.6 83 1.5 NNW 26 35 14 19 1018.0 - 2.6
27/07:30pm 14.7 10.0 12.0 84 1.5 NNW 28 33 15 18 1018.0 - 2.6
27/07:00pm 14.1 10.9 12.0 87 1.1 NNW 20 26 11 14 1017.9 - 2.6
27/06:30pm 13.8 10.7 11.5 86 1.2 N 19 24 10 13 1017.8 - 2.6
27/06:00pm 13.7 10.3 11.2 85 1.3 N 20 26 11 14 1017.6 1017.7 2.6
27/05:30pm 13.4 9.9 10.8 84 1.4 N 20 24 11 13 1017.6 - 2.6
27/05:00pm 13.6 10.2 10.4 81 1.7 N 19 24 10 13 1017.3 - 2.6
27/04:30pm 14.0 10.9 10.4 79 1.9 N 17 22 9 12 1017.3 - 2.6
27/04:00pm 14.4 10.6 11.2 81 1.7 N 22 28 12 15 1017.4 - 2.6
27/03:30pm 14.0 10.6 11.2 83 1.5 N 20 24 11 13 1017.4 - 2.6
27/03:00pm 14.1 11.3 11.4 84 1.4 N 17 20 9 11 1017.6 1017.7 2.6
27/02:30pm 14.9 11.7 12.0 83 1.6 NNE 20 24 11 13 1017.7 - 2.6
27/02:00pm 13.5 10.1 10.7 83 1.5 NNE 19 20 10 11 1017.8 - 2.6
27/01:30pm 14.5 11.5 11.8 84 1.5 NE 19 22 10 12 1018.1 - 2.6
27/01:00pm 14.5 11.9 12.0 85 1.4 NE 17 20 9 11 1018.5 - 2.6
27/12:30pm 13.0 10.7 10.5 85 1.3 NE 13 15 7 8 1019.1 - 2.6
27/12:00pm 12.2 8.0 9.6 84 1.3 N 22 30 12 16 1019.5 1019.6 2.2
27/11:30am 12.9 8.2 9.2 78 1.9 N 24 32 13 17 1019.9 - 0.0
27/11:00am 14.9 10.7 9.7 71 2.7 N 22 30 12 16 1020.3 - 0.0
27/10:30am 14.4 9.7 9.2 71 2.7 N 24 32 13 17 1020.4 - 0.0
27/10:00am 13.7 7.7 8.5 71 2.6 N 30 35 16 19 1020.6 - 0.0
27/09:30am 14.5 9.2 9.9 74 2.4 N 28 33 15 18 1020.6 - 0.0
27/09:00am 13.3 7.1 9.5 78 1.9 N 32 35 17 19 1020.8 1020.8 0.0
27/08:30am 13.0 6.8 9.4 79 1.8 NNE 32 37 17 20 1020.8 - 0.0
27/08:00am 12.6 6.4 9.2 80 1.7 N 32 35 17 19 1020.8 - 0.0
27/07:30am 12.5 6.6 9.0 79 1.8 N 30 35 16 19 1020.8 - 0.0
27/07:00am 12.3 6.3 8.8 79 1.8 NNE 30 35 16 19 1020.8 - 0.0
27/06:30am 12.1 5.7 8.6 79 1.7 NNE 32 35 17 19 1020.7 - 0.0
27/06:00am 12.3 6.8 9.0 80 1.7 NNE 28 33 15 18 1020.9 1020.9 0.0
27/05:30am 12.1 6.6 9.1 82 1.5 NNE 28 32 15 17 1020.9 - 0.0
27/05:00am 12.1 6.6 9.3 83 1.4 N 28 33 15 18 1021.1 - 0.0
27/04:30am 12.1 6.7 9.5 84 1.3 NNE 28 32 15 17 1021.2 - 0.0
27/04:00am 12.0 7.3 9.4 84 1.3 NNE 24 30 13 16 1021.4 - 0.0
27/03:30am 12.0 6.9 9.2 83 1.4 NNE 26 32 14 17 1021.7 - 0.0
27/03:00am 12.1 7.0 9.3 83 1.4 NNE 26 30 14 16 1022.1 1022.1 0.0
27/02:30am 11.9 7.2 9.1 83 1.4 NNE 24 30 13 16 1022.6 - 0.0
27/02:00am 11.9 7.5 9.1 83 1.4 NNE 22 26 12 14 1022.7 - 0.0
27/01:30am 11.9 7.9 9.1 83 1.4 N 20 24 11 13 1023.0 - 0.0
27/01:00am 12.2 7.0 8.9 80 1.7 N 26 30 14 16 1023.4 - 0.0
27/12:30am 12.1 7.3 8.9 81 1.6 N 24 30 13 16 1023.6 - 0.0
27/12:00am 12.1 7.5 9.5 84 1.3 NNE 24 28 13 15 1023.7 1023.7 0.0
 
Date/Time
EST
Temp
°C
App
Temp
°C
Dew
Point
Rel
Hum
%
Delta-T
°C
Wind Press
QNH
hPa
Press
MSL
hPa
Rain
since 9 am
mm
Dir
 
Spd
km/h
Gust
km/h
Spd
kts
Gust
kts
26/11:30pm 12.1 7.5 9.8 86 1.2 NNE 24 30 13 16 1023.9 - 0.0
26/11:00pm 12.1 7.2 9.8 86 1.2 NE 26 30 14 16 1024.0 - 0.0
26/10:30pm 12.1 7.6 10.0 87 1.1 NE 24 28 13 15 1024.1 - 0.0
26/10:00pm 11.9 7.4 10.0 88 1.0 NE 24 28 13 15 1024.3 - 0.0
26/09:30pm 11.5 7.8 9.4 87 1.1 NE 19 24 10 13 1024.6 - 0.0
26/09:00pm 11.1 7.3 9.0 87 1.0 NE 19 20 10 11 1024.7 1024.7 0.0
26/08:30pm 11.0 7.5 8.8 86 1.1 NE 17 17 9 9 1025.1 - 0.0
26/08:00pm 11.4 8.7 9.0 85 1.2 NNE 13 15 7 8 1025.3 - 0.0
26/07:30pm 10.9 8.4 8.3 84 1.3 NNE 11 13 6 7 1025.5 - 0.0
26/07:00pm 11.2 8.7 8.4 83 1.4 N 11 13 6 7 1025.7 - 0.0
26/06:30pm 11.0 8.4 7.9 81 1.5 N 11 13 6 7 1025.6 - 0.0
26/06:00pm 11.4 8.9 8.1 80 1.6 N 11 13 6 7 1025.8 1025.9 0.0
26/05:30pm 11.6 9.8 8.1 79 1.7 N 7 9 4 5 1025.6 - 0.0
26/05:00pm 12.3 12.0 8.6 78 1.9 CALM 0 0 0 0 1025.5 - 0.0
26/04:30pm 12.4 12.0 8.3 76 2.0 CALM 0 0 0 0 1025.6 - 0.0
26/04:00pm 12.8 12.5 8.5 75 2.2 CALM 0 0 0 0 1025.8 - 0.0
26/03:30pm 13.8 12.3 9.3 74 2.3 WNW 7 11 4 6 1026.0 - 0.0
26/03:00pm 13.3 11.7 8.8 74 2.3 W 7 11 4 6 1025.9 1026.0 0.0
26/02:30pm 14.2 12.1 9.6 74 2.4 WNW 11 15 6 8 1026.1 - 0.0
26/02:00pm 14.3 11.7 9.5 73 2.5 WNW 13 15 7 8 1026.5 - 0.0
26/01:30pm 14.7 12.3 10.1 74 2.4 WNW 13 15 7 8 1026.7 - 0.0
26/01:00pm 14.7 12.3 9.9 73 2.5 W 13 15 7 8 1027.0 - 0.0
26/12:30pm 14.9 12.5 10.1 73 2.5 W 13 15 7 8 1027.4 - 0.0
26/12:00pm 14.8 12.1 10.4 75 2.3 W 15 17 8 9 1027.7 1027.8 0.0
26/11:30am 15.0 12.4 10.8 76 2.2 W 15 19 8 10 1028.1 - 0.0
26/11:00am 14.5 11.4 10.3 76 2.2 W 17 19 9 10 1028.5 - 0.0
26/10:30am 14.5 12.0 10.9 79 1.9 WSW 15 19 8 10 1028.7 - 0.0
26/10:00am 14.1 11.6 10.9 81 1.7 W 15 19 8 10 1028.7 - 0.0
26/09:30am 13.6 10.3 10.8 83 1.5 W 19 22 10 12 1028.9 - 0.0
26/09:00am 13.0 9.4 10.5 85 1.3 WSW 20 22 11 12 1029.1 1029.1 0.0
26/08:30am 12.6 8.9 10.3 86 1.2 WSW 20 26 11 14 1029.2 - 0.0
26/08:00am 12.2 8.5 10.1 87 1.1 W 20 26 11 14 1029.2 - 0.0
26/07:30am 11.8 7.6 9.9 88 1.0 WSW 22 26 12 14 1028.9 - 0.0
26/07:00am 11.6 7.3 9.5 87 1.1 WSW 22 26 12 14 1028.5 - 0.0
26/06:30am 11.7 7.0 9.4 86 1.2 WSW 24 28 13 15 1028.4 - 0.0
26/06:00am 11.7 6.7 9.4 86 1.2 W 26 30 14 16 1028.3 1028.4 0.0
26/05:30am 11.6 6.9 9.3 86 1.2 W 24 28 13 15 1028.2 - 0.0
26/05:00am 11.6 6.9 9.3 86 1.2 W 24 28 13 15 1028.2 - 0.0
26/04:30am 11.4 7.4 9.0 85 1.2 W 20 26 11 14 1028.2 - 0.0
26/04:00am 11.3 7.5 8.9 85 1.2 W 19 22 10 12 1028.3 - 0.0
26/03:30am 11.6 8.2 9.0 84 1.3 W 17 20 9 11 1028.5 - 0.0
26/03:00am 11.6 8.2 9.0 84 1.3 WNW 17 20 9 11 1028.6 1028.7 0.0
26/02:30am 11.5 8.0 8.7 83 1.4 W 17 20 9 11 1028.6 - 0.0
26/02:00am 11.8 7.9 8.8 82 1.5 WNW 19 22 10 12 1028.7 - 0.0
26/01:30am 11.8 7.9 8.5 80 1.6 WNW 19 20 10 11 1028.5 - 0.0
26/01:00am 11.7 8.1 8.4 80 1.6 WNW 17 20 9 11 1028.7 - 0.0
26/12:30am 11.9 8.0 8.6 80 1.6 WNW 19 20 10 11 1029.0 - 0.0
26/12:00am 11.9 8.0 8.7 81 1.6 WNW 19 24 10 13 1029.2 1029.2 0.0
 
Date/Time
EST
Temp
°C
App
Temp
°C
Dew
Point
Rel
Hum
%
Delta-T
°C
Wind Press
QNH
hPa
Press
MSL
hPa
Rain
since 9 am
mm
Dir
 
Spd
km/h
Gust
km/h
Spd
kts
Gust
kts
25/11:30pm 12.0 8.0 9.2 83 1.4 W 20 24 11 13 1029.3 - 0.0
25/11:00pm 11.8 7.8 9.2 84 1.3 W 20 24 11 13 1029.3 - 0.0
25/10:30pm 11.8 7.8 9.0 83 1.4 W 20 24 11 13 1029.4 - 0.0
25/10:00pm 12.0 8.0 9.2 83 1.4 W 20 24 11 13 1029.6 - 0.0
25/09:30pm 12.0 8.0 9.0 82 1.5 W 20 26 11 14 1029.7 - 0.0
25/09:00pm 12.0 7.6 9.0 82 1.5 W 22 26 12 14 1029.6 1029.6 0.0
25/08:30pm 12.2 7.0 9.0 81 1.6 W 26 30 14 16 1029.5 - 0.0
25/08:00pm 12.0 7.2 8.8 81 1.6 W 24 30 13 16 1029.4 - 0.0
25/07:30pm 12.0 7.2 8.8 81 1.6 W 24 28 13 15 1029.4 - 0.0
25/07:00pm 12.1 6.9 8.9 81 1.6 W 26 30 14 16 1029.3 - 0.0
25/06:30pm 12.0 6.8 8.8 81 1.6 W 26 30 14 16 1029.1 - 0.0
25/06:00pm 12.1 6.5 8.8 80 1.6 W 28 32 15 17 1029.0 1029.0 0.0
25/05:30pm 12.1 6.5 8.6 79 1.7 W 28 32 15 17 1028.7 - 0.0
25/05:00pm 12.4 6.7 8.3 76 2.0 W 28 32 15 17 1028.5 - 0.0
25/04:30pm 13.0 7.3 8.3 73 2.3 W 28 33 15 18 1028.3 - 0.0
25/04:00pm 13.5 7.8 8.4 71 2.6 W 28 33 15 18 1028.4 - 0.0
25/03:30pm 13.9 8.3 8.7 71 2.6 W 28 32 15 17 1028.4 - 0.0
25/03:00pm 14.2 8.7 9.2 72 2.5 W 28 33 15 18 1028.4 1028.5 0.0
25/02:30pm 14.3 8.4 9.1 71 2.7 W 30 33 16 18 1028.4 - 0.0
25/02:00pm 13.7 8.1 8.7 72 2.5 W 28 32 15 17 1028.6 - 0.0

Other Formats:

Comma delimited format used in spreadsheet applications
http://www.bom.gov.au/fwo/IDV60801/IDV60801.94949.axf

JavaScript Object Notation format (JSON) in row-major order
http://www.bom.gov.au/fwo/IDV60801/IDV60801.94949.json